Tracking 28125 objects as of 3-Oct-2023
HD Live streaming from Space Station
objects crossing your sky now

STARLINK-4091

Track STARLINK-4091 now!
10-day predictions
STARLINK-4091 is classified as:


NORAD ID: 52830
Int'l Code: 2022-062A
Perigee: 545.9 km
Apogee: 547.9 km
Inclination: 53.2 °
Period: 95.4 minutes
Semi major axis: 6917 km
RCS: Unknown
Launch date: June 17, 2022
Source: United States (US)
Launch site: AIR FORCE EASTERN TEST RANGE (AFETR)
Your satellite tracking list
Your tracking list is empty




NASA's NSSDC Master Catalog

Two Line Element Set (TLE):
1 52830U 22062A   23275.77621008 -.00001480  00000-0 -74940-4 0  9993
2 52830  53.2173  64.8062 0001506  89.4114 270.7051 15.08832364 71589
Source of the keplerian elements: AFSPC